Weather History for KBKF - February, 2013

Change the Weather History Date:

Tuesday, February 5, 2013

  Actual Average (KDEN) Record (KDEN)
Temperature  
Mean Temperature 44 °F 31 °F  
Max Temperature 59 °F 45 °F 76 °F (1963)
Min Temperature 30 °F 17 °F -24 °F (1989)
Degree Days  
Heating Degree Days 20 34  
Month to date heating degree days 170  
Since 1 July heating degree days 3701  
Cooling Degree Days 0 0  
Month to date cooling degree days 0  
Year to date cooling degree days 0  
Moisture  
Dew Point 14 °F    
Average Humidity 32    
Maximum Humidity 48    
Minimum Humidity 17    
Precipitation  
Precipitation 0.00 in 0.01 in 0.67 in (1881)
Month to date precipitation 0.06  
Year to date precipitation 0.47  
Snow  
Snow 0.00 in - - ()
Month to date snowfall  
Since 1 July snowfall  
Snow Depth -    
Sea Level Pressure  
Sea Level Pressure 29.89 in    
Wind  
Wind Speed 9 mph (South)    
Max Wind Speed 23 mph    
Max Gust Speed 29 mph    
T = Trace of Precipitation, MM = Missing Value Source: NWS Daily Summary

Daily Weather History Graph

Daily Weather History Graph

Search for Another Location

Airport or City:

Trip Planner

Search our weather history database for the weather conditions in past years. The results will help you decide how hot, cold, wet, or windy it might be!

Date:

Astronomy

Feb. 05, 2013 Rise Set
Actual Time 7:02 AM MST 5:23 PM MST
Civil Twilight 6:34 AM MST 5:52 PM MST
Nautical Twilight 6:02 AM MST 6:24 PM MST
Astronomical Twilight 5:30 AM MST 6:55 PM MST
Moon 2:46 AM MST (2/5) 12:44 PM MST (2/5)
Length of Visible Light 11h 17m
Length of Day
10h 21m
Waning Crescent, 26% of the Moon is Illuminated
Feb 5
Waning Crescent
Feb 10
New
Feb 17
First Quarter
Feb 25
Full
Mar 4
Last Quarter

Hourly Weather History & Observations

Time (MST) Temp. Windchill Dew Point Humidity Pressure Visibility Wind Dir Wind Speed Gust Speed Precip Events Conditions
12:55 AM 32.0 °F 24.2 °F 12.2 °F 44% 29.88 in 25.0 mi South 9.2 mph - N/A   Partly Cloudy
1:55 AM 32.0 °F 25.6 °F 12.2 °F 44% 29.88 in 25.0 mi South 6.9 mph - N/A   Scattered Clouds
2:55 AM 30.2 °F 21.3 °F 12.2 °F 47% 29.89 in 25.0 mi South 10.4 mph - N/A   Scattered Clouds
3:55 AM 32.0 °F 24.8 °F 14.0 °F 48% 29.91 in 25.0 mi South 8.1 mph - N/A   Scattered Clouds
4:55 AM 32.0 °F 23.6 °F 14.0 °F 48% 29.93 in 25.0 mi SSW 10.4 mph - N/A   Partly Cloudy
5:55 AM 32.0 °F 26.4 °F 12.2 °F 44% 29.95 in 25.0 mi SSW 5.8 mph - N/A   Scattered Clouds
6:55 AM 32.0 °F 24.8 °F 14.0 °F 48% 29.98 in 70.0 mi South 8.1 mph - N/A   Scattered Clouds
7:55 AM 33.8 °F 26.4 °F 15.8 °F 48% 30.01 in 70.0 mi South 9.2 mph - N/A   Partly Cloudy
8:55 AM 41.0 °F 38.0 °F 15.8 °F 36% 30.01 in 70.0 mi SSE 4.6 mph - N/A   Partly Cloudy
9:55 AM 48.2 °F - 14.0 °F 25% 29.98 in 70.0 mi South 6.9 mph - N/A   Scattered Clouds
10:55 AM 50.0 °F - 14.0 °F 24% 29.99 in 70.0 mi South 6.9 mph - N/A   Mostly Cloudy
11:55 AM 53.6 °F - 14.0 °F 21% 29.96 in 70.0 mi ENE 3.5 mph - N/A   Mostly Cloudy
12:55 PM 55.4 °F - 12.2 °F 18% 29.91 in 70.0 mi South 4.6 mph - N/A   Mostly Cloudy
1:55 PM 57.2 °F - 14.0 °F 18% 29.86 in 70.0 mi Calm Calm - N/A   Scattered Clouds
2:55 PM 57.2 °F - 14.0 °F 18% 29.84 in 70.0 mi SE 4.6 mph - N/A   Scattered Clouds
3:55 PM 59.0 °F - 14.0 °F 17% 29.84 in 70.0 mi East 3.5 mph - N/A   Mostly Cloudy
4:55 PM 53.6 °F - 14.0 °F 21% 29.83 in 70.0 mi South 13.8 mph - N/A   Mostly Cloudy
5:55 PM 48.2 °F - 12.2 °F 24% 29.84 in 25.0 mi South 19.6 mph - N/A   Scattered Clouds
6:55 PM 48.2 °F - 12.2 °F 24% 29.85 in 25.0 mi South 23.0 mph - N/A   Scattered Clouds
7:55 PM 46.4 °F 38.5 °F 14.0 °F 27% 29.84 in 25.0 mi South 21.9 mph - N/A   Scattered Clouds
8:55 PM 44.6 °F 36.6 °F 12.2 °F 27% 29.80 in 25.0 mi South 19.6 mph 28.8 mph N/A   Mostly Cloudy
9:55 PM 44.6 °F 36.9 °F 14.0 °F 29% 29.76 in 25.0 mi South 18.4 mph 23.0 mph N/A   Mostly Cloudy
10:55 PM 42.8 °F 36.2 °F 14.0 °F 31% 29.76 in 25.0 mi South 12.7 mph 25.3 mph N/A   Mostly Cloudy
11:55 PM 41.0 °F 33.9 °F 14.0 °F 33% 29.75 in 25.0 mi South 12.7 mph - N/A   Mostly Cloudy